| time (UTC) | temp C | wind direction | speed KPH | gust KPH | rain 1hr cm | rain 24hr cm | rain mn cm | humidity % | barometer mb |
| 20260505041504 | 13 | 111 | 3.2 | 6.4 | 0.00 | 0.00 | 0.00 | 70 | 1017.1 |
| 20260505041216 | 12 | 108 | 1.6 | 6.4 | 0.00 | 0.00 | 0.00 | 72 | 1017.2 |
| 20260505040503 | 11 | 0 | 0.0 | 0.0 | 0.00 | 0.00 | 0.00 | 78 | 1016.9 |
| 20260505040004 | 11 | 0 | 0.0 | 0.0 | 0.00 | 0.00 | 0.00 | 79 | 1017.1 |
| 20260505035503 | 11 | 0 | 0.0 | 0.0 | 0.00 | 0.00 | 0.00 | 79 | 1017.2 |
| 20260505035003 | 11 | 0 | 0.0 | 0.0 | 0.00 | 0.00 | 0.00 | 79 | 1017.2 |
| 20260505034715 | 11 | 0 | 0.0 | 0.0 | 0.00 | 0.00 | 0.00 | 79 | 1016.9 |
| 20260505034003 | 11 | 0 | 0.0 | 0.0 | 0.00 | 0.00 | 0.00 | 79 | 1017.0 |
| 20260505033503 | 11 | 0 | 0.0 | 0.0 | 0.00 | 0.00 | 0.00 | 79 | 1017.2 |
| 20260505033004 | 11 | 110 | 0.0 | 4.8 | 0.00 | 0.00 | 0.00 | 77 | 1017.1 |
| 20260505032717 | 11 | 114 | 1.6 | 4.8 | 0.00 | 0.00 | 0.00 | 77 | 1017.1 |
| 20260505032003 | 12 | 121 | 3.2 | 6.4 | 0.00 | 0.00 | 0.00 | 75 | 1016.9 |
| 20260505031503 | 11 | 119 | 1.6 | 4.8 | 0.00 | 0.00 | 0.00 | 78 | 1017.1 |
| 20260505031003 | 11 | 108 | 1.6 | 3.2 | 0.00 | 0.00 | 0.00 | 82 | 1017.2 |
| 20260505030503 | 11 | 119 | 1.6 | 3.2 | 0.00 | 0.00 | 0.00 | 82 | 1017.2 |
| 20260505030004 | 11 | 130 | 1.6 | 3.2 | 0.00 | 0.00 | 0.00 | 81 | 1017.2 |
| 20260505025503 | 11 | 94 | 1.6 | 3.2 | 0.00 | 0.00 | 0.00 | 82 | 1017.3 |
| 20260505025004 | 11 | 92 | 1.6 | 3.2 | 0.00 | 0.00 | 0.00 | 81 | 1017.3 |
| 20260505024716 | 11 | 98 | 1.6 | 3.2 | 0.00 | 0.00 | 0.00 | 81 | 1017.3 |
| 20260505024003 | 12 | 111 | 1.6 | 3.2 | 0.00 | 0.00 | 0.00 | 80 | 1017.2 |
| 20260505023503 | 12 | 121 | 1.6 | 4.8 | 0.00 | 0.00 | 0.00 | 79 | 1017.2 |
| 20260505023215 | 12 | 123 | 1.6 | 4.8 | 0.00 | 0.00 | 0.00 | 79 | 1017.4 |
| 20260505022503 | 11 | 116 | 0.0 | 3.2 | 0.00 | 0.00 | 0.00 | 82 | 1017.4 |
| 20260505022216 | 11 | 119 | 0.0 | 1.6 | 0.00 | 0.00 | 0.00 | 83 | 1017.4 |
| 20260505021714 | 11 | 104 | 0.0 | 1.6 | 0.00 | 0.00 | 0.00 | 83 | 1017.5 |
| 20260505021003 | 11 | 102 | 0.0 | 1.6 | 0.00 | 0.00 | 0.00 | 82 | 1017.6 |
| 20260505020503 | 12 | 81 | 0.0 | 3.2 | 0.00 | 0.00 | 0.00 | 83 | 1017.8 |
| 20260505020004 | 12 | 74 | 0.0 | 3.2 | 0.00 | 0.00 | 0.00 | 83 | 1017.9 |
| 20260505015503 | 11 | 96 | 0.0 | 3.2 | 0.00 | 0.00 | 0.00 | 83 | 1017.7 |
| 20260505015214 | 12 | 157 | 0.0 | 3.2 | 0.00 | 0.00 | 0.00 | 83 | 1018.1 |
| 20260505014503 | 12 | 161 | 1.6 | 3.2 | 0.00 | 0.00 | 0.00 | 82 | 1018.0 |
| 20260505014003 | 12 | 120 | 1.6 | 6.4 | 0.00 | 0.00 | 0.00 | 80 | 1018.1 |
| 20260505013503 | 13 | 103 | 3.2 | 12.9 | 0.00 | 0.00 | 0.00 | 76 | 1018.2 |
| 20260505013003 | 13 | 99 | 6.4 | 12.9 | 0.00 | 0.00 | 0.00 | 76 | 1018.1 |
| 20260505012503 | 13 | 109 | 8.0 | 14.5 | 0.00 | 0.00 | 0.00 | 75 | 1017.8 |
| 20260505012003 | 13 | 120 | 8.0 | 14.5 | 0.00 | 0.00 | 0.00 | 75 | 1017.9 |
| 20260505011503 | 13 | 119 | 6.4 | 12.9 | 0.00 | 0.00 | 0.00 | 76 | 1018.0 |
| 20260505011003 | 13 | 117 | 4.8 | 9.7 | 0.00 | 0.00 | 0.00 | 76 | 1018.1 |
| 20260505010716 | 13 | 114 | 3.2 | 9.7 | 0.00 | 0.00 | 0.00 | 76 | 1018.2 |
| 20260505010004 | 13 | 97 | 0.0 | 3.2 | 0.00 | 0.00 | 0.00 | 77 | 1018.3 |
| 20260505005503 | 13 | 102 | 1.6 | 9.7 | 0.00 | 0.00 | 0.00 | 76 | 1018.4 |
| 20260505005004 | 13 | 101 | 4.8 | 9.7 | 0.00 | 0.00 | 0.00 | 76 | 1018.4 |
| 20260505004718 | 13 | 97 | 4.8 | 9.7 | 0.00 | 0.00 | 0.00 | 76 | 1018.4 |
| 20260505004215 | 13 | 90 | 4.8 | 9.7 | 0.00 | 0.00 | 0.00 | 76 | 1018.4 |
| 20260505003713 | 13 | 92 | 3.2 | 9.7 | 0.00 | 0.00 | 0.00 | 77 | 1018.6 |
| 20260505003216 | 13 | 89 | 0.0 | 3.2 | 0.00 | 0.00 | 0.00 | 79 | 1018.6 |
| 20260505002714 | 13 | 87 | 0.0 | 3.2 | 0.00 | 0.00 | 0.00 | 80 | 1018.6 |
| 20260505002003 | 13 | 83 | 1.6 | 3.2 | 0.00 | 0.00 | 0.00 | 81 | 1018.6 |
| 20260505001503 | 13 | 82 | 1.6 | 3.2 | 0.00 | 0.00 | 0.00 | 82 | 1018.6 |
| 20260505001003 | 13 | 78 | 1.6 | 4.8 | 0.00 | 0.00 | 0.00 | 83 | 1018.7 |
| 20260505000503 | 13 | 75 | 3.2 | 4.8 | 0.00 | 0.00 | 0.00 | 83 | 1019.0 |
| 20260505000007 | 13 | 76 | 3.2 | 4.8 | 0.00 | 0.00 | 0.00 | 83 | 1018.6 |
| 20260504235503 | 13 | 77 | 3.2 | 4.8 | 0.00 | 0.00 | 0.00 | 84 | 1018.9 |
| 20260504235215 | 13 | 78 | 3.2 | 4.8 | 0.00 | 0.00 | 0.00 | 84 | 1019.0 |
| 20260504234503 | 12 | 81 | 1.6 | 4.8 | 0.00 | 0.00 | 0.00 | 84 | 1019.3 |
| 20260504234003 | 12 | 85 | 1.6 | 4.8 | 0.00 | 0.00 | 0.00 | 85 | 1019.1 |
| 20260504233714 | 12 | 86 | 0.0 | 3.2 | 0.00 | 0.00 | 0.00 | 85 | 1019.2 |
| 20260504233003 | 12 | 86 | 0.0 | 3.2 | 0.00 | 0.00 | 0.00 | 84 | 1019.3 |
| 20260504232503 | 12 | 79 | 0.0 | 1.6 | 0.00 | 0.00 | 0.00 | 84 | 1019.4 |
| 20260504232003 | 12 | 0 | 0.0 | 0.0 | 0.00 | 0.00 | 0.00 | 83 | 1019.1 |
| 20260504231503 | 12 | 0 | 0.0 | 3.2 | 0.00 | 0.00 | 0.00 | 83 | 1019.4 |
| 20260504231003 | 13 | 77 | 0.0 | 3.2 | 0.00 | 0.00 | 0.00 | 82 | 1019.5 |
| 20260504230503 | 13 | 77 | 0.0 | 3.2 | 0.00 | 0.00 | 0.00 | 83 | 1019.4 |
| 20260504230004 | 13 | 0 | 0.0 | 0.0 | 0.00 | 0.00 | 0.00 | 83 | 1019.3 |
| 20260504225713 | 13 | 0 | 0.0 | 0.0 | 0.00 | 0.00 | 0.00 | 82 | 1019.2 |
| 20260504225004 | 13 | 71 | 0.0 | 3.2 | 0.00 | 0.00 | 0.00 | 82 | 1019.4 |
| 20260504224504 | 13 | 73 | 1.6 | 3.2 | 0.00 | 0.00 | 0.00 | 81 | 1019.6 |
| 20260504224003 | 13 | 76 | 1.6 | 4.8 | 0.00 | 0.00 | 0.00 | 81 | 1019.5 |
| 20260504223503 | 13 | 78 | 1.6 | 4.8 | 0.00 | 0.00 | 0.00 | 81 | 1019.8 |
| 20260504223003 | 13 | 81 | 1.6 | 3.2 | 0.00 | 0.00 | 0.00 | 82 | 1019.5 |
| 20260504222504 | 13 | 88 | 1.6 | 3.2 | 0.00 | 0.00 | 0.00 | 82 | 1019.4 |
| 20260504222213 | 13 | 98 | 1.6 | 3.2 | 0.00 | 0.00 | 0.00 | 81 | 1019.3 |
| 20260504221504 | 13 | 99 | 1.6 | 4.8 | 0.00 | 0.00 | 0.00 | 80 | 1019.4 |
| 20260504221003 | 13 | 97 | 1.6 | 4.8 | 0.00 | 0.00 | 0.00 | 82 | 1019.6 |
| 20260504220718 | 13 | 97 | 1.6 | 4.8 | 0.00 | 0.00 | 0.00 | 83 | 1019.9 |
| 20260504220004 | 13 | 0 | 0.0 | 0.0 | 0.00 | 0.00 | 0.00 | 79 | 1019.6 |
| 20260504215504 | 13 | 0 | 0.0 | 0.0 | 0.00 | 0.00 | 0.00 | 79 | 1019.8 |
| 20260504215003 | 14 | 0 | 0.0 | 1.6 | 0.00 | 0.00 | 0.00 | 78 | 1019.5 |
| 20260504214503 | 14 | 98 | 0.0 | 3.2 | 0.00 | 0.00 | 0.00 | 78 | 1019.5 |
| 20260504214217 | 13 | 98 | 1.6 | 3.2 | 0.00 | 0.00 | 0.00 | 78 | 1019.8 |
| 20260504213503 | 13 | 98 | 1.6 | 3.2 | 0.00 | 0.00 | 0.00 | 79 | 1019.6 |
| 20260504213003 | 14 | 98 | 0.0 | 3.2 | 0.00 | 0.00 | 0.00 | 77 | 1019.6 |
| 20260504212503 | 14 | 98 | 0.0 | 1.6 | 0.00 | 0.00 | 0.00 | 75 | 1019.7 |
| 20260504212003 | 15 | 98 | 0.0 | 1.6 | 0.00 | 0.00 | 0.00 | 74 | 1019.7 |
| 20260504211503 | 15 | 98 | 0.0 | 1.6 | 0.00 | 0.00 | 0.00 | 74 | 1019.7 |
| 20260504211004 | 15 | 0 | 0.0 | 1.6 | 0.00 | 0.00 | 0.00 | 72 | 1019.6 |
| 20260504210504 | 15 | 103 | 0.0 | 3.2 | 0.00 | 0.00 | 0.00 | 72 | 1019.8 |
| 20260504210004 | 15 | 103 | 1.6 | 3.2 | 0.00 | 0.00 | 0.00 | 71 | 1019.8 |
| 20260504205503 | 15 | 104 | 1.6 | 3.2 | 0.00 | 0.00 | 0.00 | 71 | 1019.7 |
| 20260504205003 | 15 | 103 | 1.6 | 3.2 | 0.00 | 0.00 | 0.00 | 69 | 1019.7 |
| 20260504204504 | 15 | 102 | 1.6 | 3.2 | 0.00 | 0.00 | 0.00 | 69 | 1019.7 |
| 20260504204004 | 15 | 99 | 1.6 | 3.2 | 0.00 | 0.00 | 0.00 | 69 | 1020.0 |
| 20260504203503 | 15 | 92 | 1.6 | 3.2 | 0.00 | 0.00 | 0.00 | 67 | 1019.8 |
| 20260504203003 | 15 | 91 | 1.6 | 3.2 | 0.00 | 0.00 | 0.00 | 67 | 1019.9 |
| 20260504202503 | 15 | 87 | 0.0 | 3.2 | 0.00 | 0.00 | 0.00 | 67 | 1019.4 |
| 20260504202003 | 15 | 90 | 1.6 | 3.2 | 0.00 | 0.00 | 0.00 | 67 | 1019.7 |
| 20260504201504 | 16 | 88 | 1.6 | 3.2 | 0.00 | 0.00 | 0.00 | 66 | 1019.7 |
| 20260504201004 | 16 | 83 | 1.6 | 3.2 | 0.00 | 0.00 | 0.00 | 65 | 1019.7 |
| 20260504200713 | 16 | 86 | 1.6 | 3.2 | 0.00 | 0.00 | 0.00 | 65 | 1019.5 |
| 20260504200004 | 16 | 82 | 1.6 | 3.2 | 0.00 | 0.00 | 0.00 | 66 | 1019.7 |
| 20260504195503 | 16 | 78 | 1.6 | 3.2 | 0.00 | 0.00 | 0.00 | 65 | 1019.6 |
| 20260504195003 | 16 | 82 | 0.0 | 1.6 | 0.00 | 0.00 | 0.00 | 64 | 1019.5 |
| 20260504194503 | 16 | 91 | 1.6 | 3.2 | 0.00 | 0.00 | 0.00 | 65 | 1019.8 |
| 20260504194004 | 16 | 94 | 1.6 | 3.2 | 0.00 | 0.00 | 0.00 | 65 | 1019.5 |
| 20260504193716 | 16 | 95 | 1.6 | 3.2 | 0.00 | 0.00 | 0.00 | 65 | 1019.7 |
| 20260504193004 | 16 | 92 | 0.0 | 1.6 | 0.00 | 0.00 | 0.00 | 64 | 1019.7 |
| 20260504192503 | 16 | 92 | 0.0 | 1.6 | 0.00 | 0.00 | 0.00 | 64 | 1019.5 |
| 20260504192003 | 16 | 92 | 0.0 | 1.6 | 0.00 | 0.00 | 0.00 | 65 | 1019.5 |
| 20260504191718 | 16 | 92 | 0.0 | 1.6 | 0.00 | 0.00 | 0.00 | 65 | 1019.4 |
| 20260504191216 | 16 | 83 | 1.6 | 3.2 | 0.00 | 0.00 | 0.00 | 65 | 1019.3 |
| 20260504190714 | 17 | 73 | 1.6 | 3.2 | 0.00 | 0.00 | 0.00 | 64 | 1019.3 |
| 20260504190004 | 17 | 86 | 1.6 | 3.2 | 0.00 | 0.00 | 0.00 | 62 | 1019.2 |
| 20260504185503 | 17 | 98 | 1.6 | 3.2 | 0.00 | 0.00 | 0.00 | 63 | 1019.1 |
| 20260504185003 | 17 | 98 | 1.6 | 3.2 | 0.00 | 0.00 | 0.00 | 64 | 1019.0 |
| 20260504184506 | 17 | 98 | 1.6 | 3.2 | 0.00 | 0.00 | 0.00 | 65 | 1018.8 |
| 20260504184003 | 17 | 102 | 1.6 | 3.2 | 0.00 | 0.00 | 0.00 | 65 | 1018.9 |
| 20260504183503 | 17 | 108 | 1.6 | 3.2 | 0.00 | 0.00 | 0.00 | 64 | 1019.0 |
| 20260504183003 | 18 | 111 | 1.6 | 3.2 | 0.00 | 0.00 | 0.00 | 63 | 1018.8 |
| 20260504182503 | 18 | 112 | 1.6 | 3.2 | 0.00 | 0.00 | 0.00 | 64 | 1018.9 |
| 20260504182216 | 18 | 113 | 1.6 | 4.8 | 0.00 | 0.00 | 0.00 | 64 | 1019.0 |
| 20260504181503 | 18 | 118 | 3.2 | 6.4 | 0.00 | 0.00 | 0.00 | 62 | 1019.0 |
| 20260504181217 | 18 | 124 | 3.2 | 6.4 | 0.00 | 0.00 | 0.00 | 62 | 1018.9 |
| 20260504180503 | 19 | 144 | 3.2 | 9.7 | 0.00 | 0.00 | 0.00 | 60 | 1019.0 |
| 20260504180004 | 20 | 155 | 3.2 | 9.7 | 0.00 | 0.00 | 0.00 | 58 | 1018.9 |
| 20260504175504 | 20 | 161 | 4.8 | 6.4 | 0.00 | 0.00 | 0.00 | 57 | 1018.9 |
| 20260504175214 | 20 | 162 | 4.8 | 6.4 | 0.00 | 0.00 | 0.00 | 57 | 1018.9 |
| 20260504174504 | 20 | 165 | 4.8 | 6.4 | 0.00 | 0.00 | 0.00 | 56 | 1018.7 |
| 20260504174003 | 20 | 164 | 4.8 | 6.4 | 0.00 | 0.00 | 0.00 | 55 | 1018.8 |
| 20260504173504 | 20 | 165 | 4.8 | 9.7 | 0.00 | 0.00 | 0.00 | 53 | 1018.7 |
| 20260504173004 | 20 | 164 | 6.4 | 9.7 | 0.00 | 0.00 | 0.00 | 52 | 1018.6 |
| 20260504172503 | 20 | 166 | 4.8 | 9.7 | 0.00 | 0.00 | 0.00 | 53 | 1018.9 |
| 20260504172003 | 21 | 172 | 4.8 | 9.7 | 0.00 | 0.00 | 0.00 | 52 | 1018.7 |
| 20260504171504 | 21 | 191 | 4.8 | 9.7 | 0.00 | 0.00 | 0.00 | 52 | 1018.8 |
| 20260504171003 | 21 | 204 | 6.4 | 11.3 | 0.00 | 0.00 | 0.00 | 51 | 1018.8 |
| 20260504170504 | 21 | 203 | 6.4 | 11.3 | 0.00 | 0.00 | 0.00 | 50 | 1018.6 |
| 20260504170214 | 21 | 201 | 6.4 | 11.3 | 0.00 | 0.00 | 0.00 | 50 | 1019.0 |
| 20260504151003 | 22 | 188 | 6.4 | 11.3 | 0.00 | 0.00 | 0.00 | 55 | 1019.4 |
| 20260504150503 | 22 | 192 | 6.4 | 12.9 | 0.00 | 0.00 | 0.00 | 54 | 1019.1 |
| 20260504150215 | 22 | 197 | 8.0 | 14.5 | 0.00 | 0.00 | 0.00 | 55 | 1019.3 |
| 20260504141003 | 22 | 209 | 9.7 | 16.1 | 0.00 | 0.00 | 0.00 | 54 | 1019.6 |
| 20260504140503 | 21 | 211 | 11.3 | 20.9 | 0.00 | 0.00 | 0.00 | 51 | 1019.7 |
| 20260504130503 | 22 | 198 | 11.3 | 17.7 | 0.00 | 0.00 | 0.00 | 50 | 1020.1 |
| 20260504130216 | 22 | 190 | 9.7 | 17.7 | 0.00 | 0.00 | 0.00 | 51 | 1019.9 |
| 20260504110503 | 22 | 192 | 8.0 | 14.5 | 0.00 | 0.00 | 0.00 | 39 | 1020.4 |
| 20260504082003 | 22 | 170 | 1.6 | 6.4 | 0.00 | 0.00 | 0.00 | 39 | 1020.9 |
| 20260504081503 | 22 | 180 | 3.2 | 6.4 | 0.00 | 0.00 | 0.00 | 41 | 1020.6 |
| 20260504081003 | 21 | 176 | 1.6 | 6.4 | 0.00 | 0.00 | 0.00 | 41 | 1020.6 |
| 20260504080503 | 22 | 164 | 1.6 | 4.8 | 0.00 | 0.00 | 0.00 | 42 | 1020.8 |
| 20260504050503 | 11 | 0 | 0.0 | 0.0 | 0.00 | 0.00 | 0.00 | 70 | 1019.9 |
| 20260504050004 | 11 | 0 | 0.0 | 0.0 | 0.00 | 0.00 | 0.00 | 69 | 1020.1 |
| 20260504045504 | 11 | 0 | 0.0 | 0.0 | 0.00 | 0.00 | 0.00 | 69 | 1019.8 |